Content
SEND FEEDBACK

Daily
Averages
Monthly
Summary
Mexico

SAN MARTINIANO, QUINTANA ROO


Home > North America > Mexico > Quintana Roo
Elevation: 49 feet     Latitude: 20 47N     Longitude: 087 16W

WEATHER
 
SELECT A DAY
Number of Records: 196,490;   Date Range: 2/21/06 - 7/29/14
 
SHARE

PRINT THIS DATA

[ ← Previous Day ]
WEATHER ALMANAC - FEBRUARY 16, 2014
[ Next Day → ]
[ °C ]   °F
Weather ElementAverageHighLow
Temperature56.1 °F73.4 °F (2:15 pm)39.2 °F (6:35 am)
Dewpoint21.1 °F46.4 °F (1:15 am) (7:00 pm)
Humidity40 %100 % (1:15 am)8 % (4:35 pm)
Barometer30.19 in30.23 in (9:15 am)30.14 in (4:35 am)
Wind Speed1.8 mph8.1 mph (12:35 pm)
Weather ElementAverage
Visibility9.1 mi
Wind DirectionESE (97.2 °)

Weather ElementTotal
Precipitation0.01 in
Heating Degree Days8.7 (Base 65)
Growing Degree Days6.3 (Base 50)
Averaged from 71 records on February 16, 2014
WEATHER CONDITIONS BREAKOUT
WIND DIRECTION BREAKOUT
WEATHER BY HOUR - FEBRUARY 16, 2014
[ °C ]   °F
Local TimeTemperatureDewpointHumidityBarometerVisibilityWind DirectionWind SpeedGust SpeedPrecipitationEventsConditions
12:35 AM46.4 °F42.8 °F87 %30.16 in10.0 miCalmClear
12:55 AM46.4 °F44.6 °F93 %30.16 in10.0 miCalmClear
1:15 AM46.4 °F46.4 °F100 %30.16 in10.0 miCalmClear
1:35 AM44.6 °F44.6 °F100 %30.16 in10.0 miCalmClear
1:55 AM44.6 °F44.6 °F100 %30.16 in10.0 miCalmClear
2:15 AM42.8 °F0.0 °F30.16 in10.0 miNorth (350°)3.5 mphClear
2:35 AM42.8 °F0.0 °F30.16 in10.0 miCalmClear
2:55 AM42.8 °F0.0 °F30.16 in10.0 miCalmClear
3:15 AM42.8 °F0.0 °F30.16 in7.0 miCalmClear
3:35 AM41.0 °F0.0 °F30.15 in5.0 miCalmHaze
3:55 AM42.8 °F0.0 °F30.15 in7.0 miCalmClear
4:15 AM41.0 °F0.0 °F30.15 in3.0 miCalmClear
4:35 AM41.0 °F0.0 °F30.14 in7.0 miCalmClear
4:55 AM41.0 °F0.0 °F30.16 in5.0 miCalmHaze
5:15 AM41.0 °F0.0 °F30.17 in7.0 miCalmClear
5:35 AM41.0 °F0.0 °F30.17 in5.0 miNNE (20°)3.5 mphHaze
5:55 AM41.0 °F0.0 °F30.17 in7.0 miNorth (10°)3.5 mphClear
6:15 AM41.0 °F0.0 °F30.19 in10.0 miCalmClear
6:35 AM39.2 °F0.0 °F30.18 in7.0 miCalmClear
6:55 AM41.0 °F0.0 °F30.19 in7.0 miCalmClear
7:15 AM39.2 °F0.0 °F30.19 in1.5 miCalmMist
7:35 AM41.0 °F0.0 °F30.20 in2.5 miCalmClear
7:55 AM42.8 °F0.0 °F30.20 in5.0 miCalmHaze
8:15 AM46.4 °F0.0 °F30.21 in7.0 miCalmClear
8:35 AM50.0 °F0.0 °F30.22 in10.0 miCalmClear
8:55 AM51.8 °F0.0 °F30.22 in10.0 miCalmClear
9:15 AM53.6 °F44.6 °F72 %30.23 in10.0 miCalmClear
9:35 AM57.2 °F44.6 °F63 %30.23 in10.0 miCalmClear
9:55 AM59.0 °F41.0 °F51 %30.23 in10.0 miCalm0.01 inClear
10:15 AM60.8 °F37.4 °F42 %30.23 in10.0 miCalmClear
10:35 AM62.6 °F35.6 °F37 %30.23 in10.0 miCalmClear
10:55 AM64.4 °F32.0 °F30 %30.22 in10.0 miCalmClear
11:15 AM66.2 °F32.0 °F28 %30.23 in10.0 miCalmClear
11:35 AM66.2 °F28.4 °F24 %30.22 in10.0 miCalmClear
11:55 AM68.0 °F28.4 °F23 %30.22 in10.0 miNNW (340°)4.6 mphClear
12:15 PM69.8 °F21.2 °F16 %30.22 in10.0 miWNW (290°)5.8 mphClear
12:35 PM69.8 °F23.0 °F17 %30.22 in10.0 miNW (320°)8.1 mphClear
12:55 PM69.8 °F24.8 °F18 %30.20 in10.0 miCalmClear
1:15 PM71.6 °F23.0 °F16 %30.20 in10.0 miNNW (340°)6.9 mphClear
1:35 PM71.6 °F15.8 °F12 %30.19 in10.0 miCalmClear
1:55 PM71.6 °F17.6 °F13 %30.18 in10.0 miWest (270°)4.6 mphClear
2:15 PM73.4 °F15.8 °F11 %30.17 in10.0 miNW (310°)5.8 mphClear
2:35 PM73.4 °F15.8 °F11 %30.16 in10.0 miWSW (240°)3.5 mphClear
2:55 PM73.4 °F17.6 °F12 %30.16 in10.0 miWSW (250°)3.5 mphClear
3:15 PM73.4 °F17.6 °F12 %30.15 in10.0 miCalmClear
3:35 PM73.4 °F17.6 °F12 %30.15 in10.0 miWNW (290°)5.8 mphClear
3:55 PM73.4 °F12.2 °F10 %30.16 in10.0 miWest (280°)4.6 mphClear
4:15 PM73.4 °F10.4 °F9 %30.16 in10.0 miCalmClear
4:35 PM73.4 °F6.8 °F8 %30.16 in10.0 miCalmClear
4:55 PM73.4 °F6.8 °F8 %30.16 in10.0 miCalmClear
5:15 PM71.6 °F8.6 °F9 %30.17 in10.0 miNW (320°)3.5 mphClear
5:35 PM69.8 °F26.6 °F20 %30.17 in10.0 miWSW (250°)8.1 mphClear
5:55 PM68.0 °F24.8 °F20 %30.18 in10.0 miWest (260°)6.9 mphClear
6:15 PM66.2 °F24.8 °F21 %30.19 in10.0 miWest (270°)4.6 mphClear
6:35 PM64.4 °F26.6 °F24 %30.20 in10.0 miWNW (290°)5.8 mphClear
6:55 PM62.6 °F28.4 °F27 %30.20 in10.0 miNW (310°)5.8 mphClear
7:15 PM62.6 °F30.2 °F30 %30.20 in10.0 miNW (310°)4.6 mphClear
7:35 PM60.8 °F30.2 °F31 %30.21 in10.0 miNW (320°)4.6 mphClear
7:55 PM59.0 °F32.0 °F36 %30.22 in10.0 miNW (310°)4.6 mphClear
8:15 PM59.0 °F33.8 °F39 %30.22 in10.0 miNW (320°)4.6 mphClear
8:35 PM57.2 °F35.6 °F44 %30.22 in10.0 miNW (320°)4.6 mphClear
8:55 PM57.2 °F35.6 °F44 %30.22 in10.0 miNW (310°)3.5 mphClear
9:15 PM55.4 °F37.4 °F51 %30.23 in10.0 miCalmClear
9:35 PM53.6 °F37.4 °F54 %30.22 in10.0 miCalmClear
9:55 PM51.8 °F39.2 °F62 %30.23 in10.0 miCalmClear
10:15 PM51.8 °F41.0 °F67 %30.23 in10.0 miCalmClear
10:35 PM50.0 °F41.0 °F71 %30.23 in10.0 miCalmClear
10:55 PM50.0 °F42.8 °F76 %30.23 in10.0 miCalmClear
11:15 PM48.2 °F42.8 °F82 %30.23 in10.0 miCalmClear
11:35 PM50.0 °F42.8 °F76 %30.23 in10.0 miCalmClear
11:55 PM48.2 °F42.8 °F82 %30.22 in10.0 miCalmClear
Hourly data recorded from KPCM, located miles away from San Martiniano, Quintana Roo







STORIES FROM OUR PARTNERS